User: anonymous
Location: Unspecified
(0.0000°N, 0.0000°E)
Time: 00:19:40
(UTC+00:00)
Language:

PROBA 2 - Orbit

View from above orbital plane
View from above orbital plane
View from above satellite
View from above satellite

Ground track
Ground track

The orbit data is extracted from the following two-line orbital elements,

1 36037U 09059B   14274.51525648  .00000314  00000-0  87489-4 0  5349
2 36037 098.2821 105.9515 0014303 139.0499 272.7587 14.52649195260432
Epoch (UTC): 01 October 2014 12:21:58
Eccentricity: 0.0014303
inclination: 98.2821°
perigee height: 707 km
apogee height: 727 km
right ascension of ascending node: 105.9515°
argument of perigee: 139.0499°
revolutions per day: 14.52649195
mean anomaly at epoch: 272.7587°
orbit number at epoch: 26043

The dashed part of the orbit path shows where the satellite is in the earth's shadow,  

DLR